カタログに戻る

BREEZE-M DEB

運用中HEO
NORAD 35543·DEBRIS·🇷🇺 Russia

打ち上げ Feb 28, 2006 から Baikonur Cosmodrome

Loading…

次のパス (今後24時間)

TLE

古いSource: Space-Track

元期: Aug 18, 2026, 11:48 UTC

1 35543U 06006CL  26230.49174634 -.00000258  00000-0 -10814-2 0  9996
2 35543  52.7560 347.7687 5099500  83.3641 358.8469  5.03499593 42929

AllMySatでBREEZE-M DEBをリアルタイム追跡

Download on the App Store